Hourly Data Report for June 02, 2012

HALIFAX STANFIELD INT'L A
NOVA SCOTIA

44°52'48.060" N
63°30'00.050" W
145.40 m
8202250
71395
YHZ

Download Data

Hourly Data (June 2012)
Hourly Data Report for June 2, 2012
TIME
LST
Temp Definition
°C
Dew Point Definition
°C
Rel Hum Definition
%
Precip. Amount Definition
mm

Wind Dir Definition
10's deg

Wind Spd Definition
km/h
Visibility Definition
km
Stn Press Definition
kPa
Hmdx Definition


Wind Chill Definition


Weather Definition


00:00 8.5 6.7 88   36 7 24.1 100.16     Clear
01:00 8.2 6.3 88   32 9 24.1 100.15     Clear
02:00 8.0 6.9 93   34 6 24.1 100.15     Clear
03:00 8.2 7.1 93   34 6 24.1 100.17     Clear
04:00 7.6 6.5 93   32 7 24.1 100.19     Clear
05:00 8.2 6.6 90   31 6 24.1 100.20     Mainly Clear
06:00 10.1 7.4 83   35 6 24.1 100.25     Mainly Clear
07:00 11.6 8.1 79   36 11 24.1 100.22     Mainly Clear
08:00 14.2 8.0 66   32 6 24.1 100.22     Mainly Clear
09:00 15.4 8.2 62   1 11 24.1 100.20     Mainly Clear
10:00 17.1 10.0 63   5 13 24.1 100.19     Mostly Cloudy
11:00 18.8 10.4 58   6 4 24.1 100.18     Mostly Cloudy
12:00 19.7 9.8 53   33 13 24.1 100.14     Mostly Cloudy
13:00 19.7 11.1 58   20 11 24.1 100.09     Mostly Cloudy
14:00 18.3 9.9 58   11 13 24.1 100.03     Mostly Cloudy
15:00 17.9 10.4 61   18 17 24.1 100.02     Cloudy
16:00 18.4 10.4 60   18 17 24.1 100.03     Cloudy
17:00 17.4 9.7 61   20 13 24.1 100.04     Cloudy
18:00 16.3 9.1 62   22 20 24.1 100.03     Cloudy
19:00 14.1 8.0 67   22 15 24.1 100.05     Cloudy
20:00 12.6 8.2 75   21 9 24.1 99.99     Cloudy
21:00 11.0 7.8 81   16 4 24.1 99.96     Cloudy
22:00 9.9 7.5 85   19 9 24.1 99.98     Cloudy
23:00 9.4 7.4 87     0 24.1 99.97     Cloudy

Notes on Data Quality.

Legend

  • E = Estimated
  • M = Missing
  • NA = Not Available*
  • [empty] = Indicates an unobserved value
Date modified: